This is the latest recevied weather packets stored in our database for station/object N1OF. If no packets are shown the sender has not sent any weather packets the latest 10 day(s).
| Time | Temp. | Humidity | Pressure | Rain* | Wind** | Luminosity | Snow |
|---|---|---|---|---|---|---|---|
| 1778088076 | 13.33° C | 47% | 1013.5 hPa | 0 mm | - | - | - |
| 1778087773 | 13.33° C | 47% | 1013.5 hPa | 0 mm | - | - | - |
| 1778087470 | 13.33° C | 47% | 1013.6 hPa | 0 mm | - | - | - |
| 1778087168 | 13.33° C | 48% | 1013.5 hPa | 0 mm | - | - | - |
| 1778086865 | 13.33° C | 49% | 1013.6 hPa | 0 mm | - | - | - |
| 1778086563 | 13.33° C | 45% | 1013.7 hPa | 0 mm | - | - | - |
| 1778086254 | 13.33° C | 46% | 1013.6 hPa | 0 mm | - | - | - |
| 1778085951 | 13.33° C | 47% | 1013.4 hPa | 0 mm | - | - | - |
| 1778085649 | 12.78° C | 47% | 1013.4 hPa | 0 mm | - | - | - |
| 1778085343 | 13.33° C | 47% | 1013.5 hPa | 0 mm | - | - | - |
| 1778085039 | 13.89° C | 46% | 1013.6 hPa | 0 mm | - | - | - |
| 1778084736 | 12.78° C | 48% | 1013.6 hPa | 0 mm | - | - | - |
| 1778084433 | 13.33° C | 46% | 1013.8 hPa | 0 mm | - | - | - |
| 1778084131 | 13.33° C | 46% | 1013.4 hPa | 0 mm | - | - | - |
| 1778083821 | 13.33° C | 46% | 1013.5 hPa | 0 mm | - | - | - |
| 1778083519 | 13.33° C | 47% | 1013.5 hPa | 0 mm | - | - | - |
| 1778083216 | 13.33° C | 49% | 1013.5 hPa | 0 mm | - | - | - |
| 1778082915 | 12.78° C | 50% | 1013.5 hPa | 0 mm | - | - | - |
| 1778081806 | 12.22° C | 50% | 1013.3 hPa | 0 mm | - | - | - |
| 1778081504 | 12.22° C | 50% | 1013.3 hPa | 0 mm | - | - | - |
| 1778081200 | 12.22° C | 52% | 1013 hPa | 0 mm | - | - | - |
| 1778080898 | 12.22° C | 53% | 1013.1 hPa | 0 mm | - | - | - |
| 1778080597 | 11.67° C | 52% | 1013.1 hPa | 0 mm | - | - | - |
| 1778080293 | 12.22° C | 55% | 1013.1 hPa | 0 mm | - | - | - |
| 1778079990 | 11.67° C | 54% | 1013.1 hPa | 0 mm | - | - | - |
* Rain latest hour (hover to see other rain measurements)
** Current wind speed in m/s (hover to see current wind gust speed)